Weather History for PASI - November, 2013

Change the Weather History Date:

Tuesday, November 19, 2013

  Actual Average Record
Temperature  
Mean Temperature 28 °F -  
Max Temperature 37 °F 41 °F 53 °F (1979)
Min Temperature 19 °F 33 °F 16 °F (1963)
Degree Days  
Heating Degree Days 37    
Moisture  
Dew Point 18 °F    
Average Humidity 70    
Maximum Humidity 86    
Minimum Humidity 46    
Precipitation  
Precipitation 0.07 in - - ()
Sea Level Pressure  
Sea Level Pressure 29.87 in    
Wind  
Wind Speed 13 mph (ESE)    
Max Wind Speed 23 mph    
Max Gust Speed 31 mph    
Visibility 5 miles    
Events Fog , Snow    
Averages and records for this station are not official NWS values.
T = Trace of Precipitation, MM = Missing Value Source: NWS Daily Summary

Daily Weather History Graph

Daily Weather History Graph

Search for Another Location

Airport or City:

Trip Planner

Search our weather history database for the weather conditions in past years. The results will help you decide how hot, cold, wet, or windy it might be!

Date:

Astronomy

Nov. 19, 2013 Rise Set
Actual Time 7:52 AM AKST 3:40 PM AKST
Civil Twilight 7:07 AM AKST 4:25 PM AKST
Nautical Twilight 6:19 AM AKST 5:13 PM AKST
Astronomical Twilight 5:34 AM AKST 5:58 PM AKST
Moon 5:34 PM AKST (11/19) 9:42 AM AKST (11/19)
Length of Visible Light 9h 17m
Length of Day
7h 48m
Waning Gibbous, 95% of the Moon is Illuminated
Nov 19
Waning Gibbous
Nov 25
Last Quarter
Dec 2
New
Dec 9
First Quarter
Dec 17
Full

Hourly Weather History & Observations

Time (AKST) Temp. Windchill Dew Point Humidity Pressure Visibility Wind Dir Wind Speed Gust Speed Precip Events Conditions
12:53 AM 19.9 °F 12.1 °F 3.9 °F 50% 29.96 in 10.0 mi East 5.8 mph - N/A   Clear
1:53 AM 19.9 °F 13.4 °F 6.1 °F 55% 29.96 in 10.0 mi East 4.6 mph - N/A   Clear
2:53 AM 19.9 °F 13.4 °F 5.0 °F 52% 29.94 in 10.0 mi East 4.6 mph - N/A   Overcast
3:53 AM 24.1 °F 19.7 °F 6.1 °F 46% 29.92 in 10.0 mi Variable 3.5 mph - N/A   Scattered Clouds
4:53 AM 21.9 °F 14.5 °F 8.1 °F 55% 29.91 in 10.0 mi East 5.8 mph - N/A   Scattered Clouds
5:53 AM 23.0 °F 17.0 °F 7.0 °F 50% 29.90 in 10.0 mi ENE 4.6 mph - N/A   Scattered Clouds
6:53 AM 25.0 °F 19.3 °F 8.1 °F 49% 29.88 in 10.0 mi SSE 4.6 mph - N/A   Mostly Cloudy
7:53 AM 25.0 °F 14.8 °F 8.1 °F 49% 29.87 in 10.0 mi East 10.4 mph - N/A   Overcast
8:40 AM 23.0 °F 8.7 °F 14.0 °F 68% 29.89 in 1.0 mi East 18.4 mph 24.2 mph N/A Snow Light Snow
8:53 AM 23.0 °F 8.7 °F 16.0 °F 74% 29.90 in 0.8 mi ESE 18.4 mph 24.2 mph 0.00 in Snow Light Snow
8:58 AM 21.2 °F 7.3 °F 15.8 °F 80% 29.90 in 0.5 mi East 16.1 mph 26.5 mph N/A Snow Snow
9:29 AM 21.2 °F 4.9 °F 17.6 °F 86% 29.90 in 1.2 mi East 23.0 mph 28.8 mph N/A Snow Light Snow
9:36 AM 21.9 °F 6.9 °F 16.0 °F 78% 29.89 in 2.0 mi East 19.6 mph 27.6 mph 0.00 in Snow Light Snow
9:53 AM 23.0 °F 8.7 °F 15.1 °F 72% 29.89 in 3.0 mi ESE 18.4 mph - 0.00 in Snow Light Snow
10:11 AM 24.1 °F 12.0 °F 14.0 °F 65% 29.89 in 9.0 mi East 13.8 mph 18.4 mph 0.00 in Snow Light Snow
10:53 AM 26.1 °F 13.1 °F 14.0 °F 60% 29.88 in 10.0 mi ESE 17.3 mph 25.3 mph 0.00 in   Overcast
11:31 AM 26.1 °F 12.3 °F 14.0 °F 60% 29.88 in 2.0 mi ESE 19.6 mph - 0.00 in Snow Light Snow
11:34 AM 25.0 °F 10.9 °F 14.0 °F 63% 29.88 in 1.5 mi ESE 19.6 mph - 0.00 in Snow Light Snow
11:53 AM 25.0 °F 12.6 °F 17.1 °F 72% 29.88 in 1.5 mi ESE 15.0 mph - 0.00 in Snow Light Snow
12:20 PM 25.0 °F 11.3 °F 18.0 °F 75% 29.88 in 5.0 mi ESE 18.4 mph 26.5 mph 0.00 in Snow Light Snow
12:27 PM 25.0 °F 9.9 °F 17.1 °F 72% 29.88 in 6.0 mi ESE 23.0 mph 31.1 mph 0.00 in Snow Light Snow
12:53 PM 25.0 °F 10.2 °F 16.0 °F 69% 29.87 in 10.0 mi ESE 21.9 mph 28.8 mph 0.00 in   Overcast
1:53 PM 27.0 °F 12.8 °F 14.0 °F 58% 29.86 in 10.0 mi ESE 21.9 mph 31.1 mph N/A   Overcast
2:38 PM 27.0 °F 12.8 °F 15.1 °F 61% 29.85 in 6.0 mi ESE 21.9 mph 29.9 mph 0.00 in Snow Light Snow
2:53 PM 26.1 °F 11.3 °F 16.0 °F 66% 29.86 in 6.0 mi ESE 23.0 mph 31.1 mph 0.00 in Snow Light Snow
3:00 PM 26.1 °F 12.3 °F 16.0 °F 66% 29.85 in 2.5 mi ESE 19.6 mph 31.1 mph 0.00 in Snow Light Snow
3:17 PM 26.1 °F 11.6 °F 16.0 °F 66% 29.85 in 3.0 mi ESE 21.9 mph 29.9 mph 0.00 in Snow Light Snow
3:53 PM 26.1 °F 12.3 °F 17.1 °F 69% 29.85 in 3.0 mi ESE 19.6 mph 27.6 mph 0.00 in Snow Light Snow
4:19 PM 27.0 °F 12.5 °F 17.1 °F 66% 29.84 in 9.0 mi ESE 23.0 mph 29.9 mph 0.00 in Snow Light Snow
4:53 PM 28.0 °F 14.9 °F 16.0 °F 61% 29.83 in 9.0 mi ESE 19.6 mph 27.6 mph 0.00 in Snow Light Snow
5:18 PM 27.0 °F 14.7 °F 19.0 °F 72% 29.85 in 3.0 mi ESE 16.1 mph 25.3 mph 0.00 in Snow Light Snow
5:31 PM 26.1 °F 13.1 °F 21.0 °F 81% 29.85 in 3.0 mi ESE 17.3 mph 23.0 mph 0.00 in Snow Light Snow
5:53 PM 27.0 °F 14.7 °F 23.0 °F 85% 29.84 in 3.0 mi East 16.1 mph 20.7 mph 0.01 in Snow Light Snow
6:00 PM 27.0 °F 14.7 °F 23.0 °F 85% 29.84 in 0.5 mi East 16.1 mph - 0.00 in Fog , Snow Light Snow
6:18 PM 27.0 °F 16.7 °F 23.0 °F 85% 29.84 in 1.0 mi ESE 11.5 mph 23.0 mph 0.01 in Snow Light Snow
6:31 PM 28.0 °F 14.9 °F 23.0 °F 81% 29.84 in 2.0 mi ESE 19.6 mph 25.3 mph 0.01 in Snow Light Snow
6:40 PM 28.0 °F 15.3 °F 21.0 °F 75% 29.83 in 8.0 mi ESE 18.4 mph 25.3 mph 0.01 in Snow Light Snow
6:53 PM 30.0 °F 18.7 °F 21.0 °F 69% 29.83 in 3.0 mi ESE 16.1 mph 24.2 mph 0.01 in Snow Light Snow
6:58 PM 30.0 °F 19.1 °F 21.0 °F 69% 29.83 in 1.8 mi ESE 15.0 mph 25.3 mph 0.00 in Snow Light Snow
7:07 PM 30.0 °F 17.9 °F 23.0 °F 75% 29.83 in 0.8 mi ESE 18.4 mph 24.2 mph 0.00 in Snow Light Snow
7:21 PM 28.0 °F 15.7 °F 24.1 °F 85% 29.83 in 0.5 mi ESE 17.3 mph - 0.00 in Fog , Snow Light Snow
7:53 PM 28.9 °F 16.9 °F 25.0 °F 85% 29.83 in 0.8 mi ESE 17.3 mph - 0.02 in Snow Light Snow
8:15 PM 30.0 °F 18.3 °F 25.0 °F 82% 29.84 in 1.0 mi ESE 17.3 mph - 0.01 in Snow Light Snow
8:28 PM 30.0 °F 19.5 °F 25.0 °F 82% 29.84 in 2.0 mi East 13.8 mph - 0.02 in Snow Light Snow
8:41 PM 30.0 °F 21.7 °F 26.1 °F 85% 29.84 in 2.5 mi East 9.2 mph - 0.03 in Snow Light Snow
8:51 PM 30.2 °F 24.3 °F 26.6 °F 86% 29.85 in 4.0 mi East 5.8 mph - 0.03 in Snow Light Snow
8:53 PM 30.0 °F 21.1 °F 26.1 °F 85% 29.85 in 4.0 mi SE 10.4 mph - 0.03 in Snow Light Snow
9:22 PM 30.9 °F 22.8 °F 26.1 °F 82% 29.85 in 9.0 mi East 9.2 mph - 0.00 in Snow Light Snow
9:53 PM 30.0 °F 20.5 °F 24.1 °F 79% 29.86 in 9.0 mi East 11.5 mph 21.9 mph 0.00 in Snow Light Snow
10:29 PM 35.1 °F 25.5 °F 28.0 °F 76% 29.87 in 5.0 mi West 15.0 mph 24.2 mph 0.00 in Snow Light Snow
10:53 PM 37.0 °F 27.4 °F 27.0 °F 67% 29.87 in 10.0 mi West 17.3 mph 23.0 mph 0.00 in   Overcast
11:53 PM 36.0 °F 27.5 °F 25.0 °F 64% 29.87 in 10.0 mi West 12.7 mph 17.3 mph N/A   Overcast